owner,sensor,date,latitude,longitude,vertical_datum,sea_water_temperature,qcFlag
Chevron,ioos:station:wmo:42385:1,2021-09-04T21:15:00Z,28.3400,-88.2657,29.4,28.3,11111222
Chevron,ioos:station:wmo:42385:1,2021-09-04T21:35:00Z,28.3400,-88.2657,29.4,27.9,11111222
Chevron,ioos:station:wmo:42385:1,2021-09-04T21:55:00Z,28.3400,-88.2657,29.4,27.7,11111222
Chevron,ioos:station:wmo:42385:1,2021-09-04T22:15:00Z,28.3400,-88.2657,29.4,27.6,11111222
Chevron,ioos:station:wmo:42385:1,2021-09-04T22:35:00Z,28.3400,-88.2657,29.4,27.7,11111222
Chevron,ioos:station:wmo:42385:1,2021-09-04T22:55:00Z,28.3400,-88.2657,29.4,27.5,11111222
Chevron,ioos:station:wmo:42385:1,2021-09-04T23:15:00Z,28.3400,-88.2657,29.4,27.8,11111222
Chevron,ioos:station:wmo:42385:1,2021-09-04T23:35:00Z,28.3400,-88.2657,29.4,27.9,11111222
Chevron,ioos:station:wmo:42385:1,2021-09-04T23:55:00Z,28.3400,-88.2657,29.4,28.0,11111222
Chevron,ioos:station:wmo:42385:1,2021-09-05T00:15:00Z,28.3400,-88.2657,29.4,28.1,11111222
Chevron,ioos:station:wmo:42385:1,2021-09-05T00:35:00Z,28.3400,-88.2657,29.4,28.1,11111222
Chevron,ioos:station:wmo:42385:1,2021-09-05T00:55:00Z,28.3400,-88.2657,29.4,28.2,11111222
Chevron,ioos:station:wmo:42385:1,2021-09-05T01:15:00Z,28.3400,-88.2657,29.4,28.1,11111222
Chevron,ioos:station:wmo:42385:1,2021-09-05T01:35:00Z,28.3400,-88.2657,29.4,28.1,11111222
Chevron,ioos:station:wmo:42385:1,2021-09-05T01:55:00Z,28.3400,-88.2657,29.4,28.3,11111222
Chevron,ioos:station:wmo:42385:1,2021-09-05T02:15:00Z,28.3400,-88.2657,29.4,28.3,11111222
Chevron,ioos:station:wmo:42385:1,2021-09-05T02:35:00Z,28.3400,-88.2657,29.4,28.3,11111222
Chevron,ioos:station:wmo:42385:1,2021-09-05T02:55:00Z,28.3400,-88.2657,29.4,28.6,11111222
Chevron,ioos:station:wmo:42385:1,2021-09-05T03:15:00Z,28.3400,-88.2657,29.4,28.5,11111222
Chevron,ioos:station:wmo:42385:1,2021-09-05T03:35:00Z,28.3400,-88.2657,29.4,28.6,11111222
Chevron,ioos:station:wmo:42385:1,2021-09-05T03:55:00Z,28.3400,-88.2657,29.4,28.6,11111222
Chevron,ioos:station:wmo:42385:1,2021-09-05T04:15:00Z,28.3400,-88.2657,29.4,28.5,11111222
Chevron,ioos:station:wmo:42385:1,2021-09-05T04:35:00Z,28.3400,-88.2657,29.4,28.4,11111222
Chevron,ioos:station:wmo:42385:1,2021-09-05T04:55:00Z,28.3400,-88.2657,29.4,28.6,11111222
Chevron,ioos:station:wmo:42385:1,2021-09-05T05:15:00Z,28.3400,-88.2657,29.4,28.5,11111222
Chevron,ioos:station:wmo:42385:1,2021-09-05T05:35:00Z,28.3400,-88.2657,29.4,28.4,11111222
Chevron,ioos:station:wmo:42385:1,2021-09-05T05:55:00Z,28.3400,-88.2657,29.4,28.5,11111222
Chevron,ioos:station:wmo:42385:1,2021-09-05T06:15:00Z,28.3400,-88.2657,29.4,28.7,11111222
Chevron,ioos:station:wmo:42385:1,2021-09-05T06:35:00Z,28.3400,-88.2657,29.4,28.7,11111222
Chevron,ioos:station:wmo:42385:1,2021-09-05T06:55:00Z,28.3400,-88.2657,29.4,28.7,11111222
Chevron,ioos:station:wmo:42385:1,2021-09-05T07:15:00Z,28.3400,-88.2657,29.4,28.6,11111222
Chevron,ioos:station:wmo:42385:1,2021-09-05T07:35:00Z,28.3400,-88.2657,29.4,28.7,11111222
Chevron,ioos:station:wmo:42385:1,2021-09-05T07:55:00Z,28.3400,-88.2657,29.4,28.6,11111222
Chevron,ioos:station:wmo:42385:1,2021-09-05T08:15:00Z,28.3400,-88.2657,29.4,28.6,11111222
Chevron,ioos:station:wmo:42385:1,2021-09-05T08:35:00Z,28.3400,-88.2657,29.4,28.7,11111222
Chevron,ioos:station:wmo:42385:1,2021-09-05T08:55:00Z,28.3400,-88.2657,29.4,28.7,11111222
Chevron,ioos:station:wmo:42385:1,2021-09-05T09:15:00Z,28.3400,-88.2657,29.4,28.9,11111222
Chevron,ioos:station:wmo:42385:1,2021-09-05T09:35:00Z,28.3400,-88.2657,29.4,28.7,11111222
Chevron,ioos:station:wmo:42385:1,2021-09-05T09:55:00Z,28.3400,-88.2657,29.4,28.7,11111222
Chevron,ioos:station:wmo:42385:1,2021-09-05T10:15:00Z,28.3400,-88.2657,29.4,28.8,11111222
Chevron,ioos:station:wmo:42385:1,2021-09-05T10:35:00Z,28.3400,-88.2657,29.4,28.9,11111222
Chevron,ioos:station:wmo:42385:1,2021-09-05T10:55:00Z,28.3400,-88.2657,29.4,28.7,11111222
Chevron,ioos:station:wmo:42385:1,2021-09-05T11:14:00Z,28.3400,-88.2657,29.4,28.7,11111222
Chevron,ioos:station:wmo:42385:1,2021-09-05T11:35:00Z,28.3400,-88.2657,29.4,28.7,11111222
Chevron,ioos:station:wmo:42385:1,2021-09-05T11:55:00Z,28.3400,-88.2657,29.4,28.7,11111222
Chevron,ioos:station:wmo:42385:1,2021-09-05T12:15:00Z,28.3400,-88.2657,29.4,28.8,11111222
Chevron,ioos:station:wmo:42385:1,2021-09-05T12:35:00Z,28.3400,-88.2657,29.4,28.9,11111222
Chevron,ioos:station:wmo:42385:1,2021-09-05T12:55:00Z,28.3400,-88.2657,29.4,28.8,11111222
Chevron,ioos:station:wmo:42385:1,2021-09-05T13:15:00Z,28.3400,-88.2657,29.4,28.7,11111222
Chevron,ioos:station:wmo:42385:1,2021-09-05T13:35:00Z,28.3400,-88.2657,29.4,28.9,11111222
Chevron,ioos:station:wmo:42385:1,2021-09-05T13:55:00Z,28.3400,-88.2657,29.4,28.7,11111222
Chevron,ioos:station:wmo:42385:1,2021-09-05T14:15:00Z,28.3400,-88.2657,29.4,28.8,11111222
Chevron,ioos:station:wmo:42385:1,2021-09-05T14:35:00Z,28.3400,-88.2657,29.4,29.0,11111222
Chevron,ioos:station:wmo:42385:1,2021-09-05T14:55:00Z,28.3400,-88.2657,29.4,28.9,11111222
Chevron,ioos:station:wmo:42385:1,2021-09-05T15:15:00Z,28.3400,-88.2657,29.4,28.8,11111222
Chevron,ioos:station:wmo:42385:1,2021-09-05T15:35:00Z,28.3400,-88.2657,29.4,29.0,11111222
Chevron,ioos:station:wmo:42385:1,2021-09-05T15:55:00Z,28.3400,-88.2657,29.4,28.9,11111222
Chevron,ioos:station:wmo:42385:1,2021-09-05T16:15:00Z,28.3400,-88.2657,29.4,28.9,11111222
Chevron,ioos:station:wmo:42385:1,2021-09-05T16:35:00Z,28.3400,-88.2657,29.4,28.9,11111222
Chevron,ioos:station:wmo:42385:1,2021-09-05T16:55:00Z,28.3400,-88.2657,29.4,28.8,11111222
Chevron,ioos:station:wmo:42385:1,2021-09-05T17:15:00Z,28.3400,-88.2657,29.4,28.9,11111222
Chevron,ioos:station:wmo:42385:1,2021-09-05T17:35:00Z,28.3400,-88.2657,29.4,29.3,11111222
Chevron,ioos:station:wmo:42385:1,2021-09-05T17:55:00Z,28.3400,-88.2657,29.4,28.9,11111222
Chevron,ioos:station:wmo:42385:1,2021-09-05T18:15:00Z,28.3400,-88.2657,29.4,29.0,11111222
Chevron,ioos:station:wmo:42385:1,2021-09-05T18:35:00Z,28.3400,-88.2657,29.4,29.0,11111222
Chevron,ioos:station:wmo:42385:1,2021-09-05T18:55:00Z,28.3400,-88.2657,29.4,28.9,11111222
Chevron,ioos:station:wmo:42385:1,2021-09-05T19:15:00Z,28.3400,-88.2657,29.4,29.0,11111222
Chevron,ioos:station:wmo:42385:1,2021-09-05T19:35:00Z,28.3400,-88.2657,29.4,29.0,11111222
Chevron,ioos:station:wmo:42385:1,2021-09-05T19:55:00Z,28.3400,-88.2657,29.4,28.9,11111222
Chevron,ioos:station:wmo:42385:1,2021-09-05T20:15:00Z,28.3400,-88.2657,29.4,29.0,11111222
Chevron,ioos:station:wmo:42385:1,2021-09-05T20:35:00Z,28.3400,-88.2657,29.4,28.8,11111222
Chevron,ioos:station:wmo:42385:1,2021-09-05T20:55:00Z,28.3400,-88.2657,29.4,28.8,11111222
Chevron,ioos:station:wmo:42385:1,2021-09-05T21:15:00Z,28.3400,-88.2657,29.4,28.9,11111222
Chevron,ioos:station:wmo:42385:1,2021-09-05T21:35:00Z,28.3400,-88.2657,29.4,28.8,11111222
Chevron,ioos:station:wmo:42385:1,2021-09-05T21:55:00Z,28.3400,-88.2657,29.4,28.9,11111222
Chevron,ioos:station:wmo:42385:1,2021-09-05T22:15:00Z,28.3400,-88.2657,29.4,29.0,11111222
Chevron,ioos:station:wmo:42385:1,2021-09-05T22:35:00Z,28.3400,-88.2657,29.4,28.9,11111222
Chevron,ioos:station:wmo:42385:1,2021-09-05T22:55:00Z,28.3400,-88.2657,29.4,29.0,11111222
Chevron,ioos:station:wmo:42385:1,2021-09-05T23:15:00Z,28.3400,-88.2657,29.4,29.1,11111222
Chevron,ioos:station:wmo:42385:1,2021-09-05T23:35:00Z,28.3400,-88.2657,29.4,29.1,11111222
Chevron,ioos:station:wmo:42385:1,2021-09-05T23:55:00Z,28.3400,-88.2657,29.4,29.0,11111222
Chevron,ioos:station:wmo:42385:1,2021-09-06T00:15:00Z,28.3400,-88.2657,29.4,29.0,11111222
Chevron,ioos:station:wmo:42385:1,2021-09-06T00:35:00Z,28.3400,-88.2657,29.4,29.1,11111222
Chevron,ioos:station:wmo:42385:1,2021-09-06T00:55:00Z,28.3400,-88.2657,29.4,29.1,11111222
Chevron,ioos:station:wmo:42385:1,2021-09-06T01:15:00Z,28.3400,-88.2657,29.4,29.0,11111222
Chevron,ioos:station:wmo:42385:1,2021-09-06T01:35:00Z,28.3400,-88.2657,29.4,29.1,11111222
Chevron,ioos:station:wmo:42385:1,2021-09-06T01:55:00Z,28.3400,-88.2657,29.4,29.4,11111222
Chevron,ioos:station:wmo:42385:1,2021-09-06T02:15:00Z,28.3400,-88.2657,29.4,29.1,11111222
Chevron,ioos:station:wmo:42385:1,2021-09-06T02:35:00Z,28.3400,-88.2657,29.4,29.2,11111222
Chevron,ioos:station:wmo:42385:1,2021-09-06T02:55:00Z,28.3400,-88.2657,29.4,29.1,11111222
Chevron,ioos:station:wmo:42385:1,2021-09-06T03:15:00Z,28.3400,-88.2657,29.4,29.2,11111222
Chevron,ioos:station:wmo:42385:1,2021-09-06T03:35:00Z,28.3400,-88.2657,29.4,29.1,11111222
Chevron,ioos:station:wmo:42385:1,2021-09-06T03:55:00Z,28.3400,-88.2657,29.4,29.1,11111222
Chevron,ioos:station:wmo:42385:1,2021-09-06T04:15:00Z,28.3400,-88.2657,29.4,29.0,11111222
Chevron,ioos:station:wmo:42385:1,2021-09-06T04:35:00Z,28.3400,-88.2657,29.4,29.2,11111222
Chevron,ioos:station:wmo:42385:1,2021-09-06T04:55:00Z,28.3400,-88.2657,29.4,29.1,11111222
Chevron,ioos:station:wmo:42385:1,2021-09-06T05:15:00Z,28.3400,-88.2657,29.4,29.2,11111222
Chevron,ioos:station:wmo:42385:1,2021-09-06T05:35:00Z,28.3400,-88.2657,29.4,29.5,11111222
Chevron,ioos:station:wmo:42385:1,2021-09-06T05:55:00Z,28.3400,-88.2657,29.4,29.2,11111222
Chevron,ioos:station:wmo:42385:1,2021-09-06T06:15:00Z,28.3400,-88.2657,29.4,29.1,11111222
Chevron,ioos:station:wmo:42385:1,2021-09-06T06:35:00Z,28.3400,-88.2657,29.4,29.1,11111222
Chevron,ioos:station:wmo:42385:1,2021-09-06T06:55:00Z,28.3400,-88.2657,29.4,29.2,11111222
Chevron,ioos:station:wmo:42385:1,2021-09-06T07:15:00Z,28.3400,-88.2657,29.4,29.0,11111222
Chevron,ioos:station:wmo:42385:1,2021-09-06T07:35:00Z,28.3400,-88.2657,29.4,29.2,11111222
Chevron,ioos:station:wmo:42385:1,2021-09-06T07:55:00Z,28.3400,-88.2657,29.4,29.1,11111222
Chevron,ioos:station:wmo:42385:1,2021-09-06T08:15:00Z,28.3400,-88.2657,29.4,28.9,11111222
Chevron,ioos:station:wmo:42385:1,2021-09-06T08:35:00Z,28.3400,-88.2657,29.4,28.7,11111222
Chevron,ioos:station:wmo:42385:1,2021-09-06T08:55:00Z,28.3400,-88.2657,29.4,28.6,11111222
Chevron,ioos:station:wmo:42385:1,2021-09-06T09:15:00Z,28.3400,-88.2657,29.4,28.4,11111222
Chevron,ioos:station:wmo:42385:1,2021-09-06T09:35:00Z,28.3400,-88.2657,29.4,28.3,11111222
Chevron,ioos:station:wmo:42385:1,2021-09-06T09:55:00Z,28.3400,-88.2657,29.4,28.3,11111222
Chevron,ioos:station:wmo:42385:1,2021-09-06T10:15:00Z,28.3400,-88.2657,29.4,28.4,11111222
Chevron,ioos:station:wmo:42385:1,2021-09-06T10:35:00Z,28.3400,-88.2657,29.4,28.4,11111222
Chevron,ioos:station:wmo:42385:1,2021-09-06T10:55:00Z,28.3400,-88.2657,29.4,28.4,11111222
Chevron,ioos:station:wmo:42385:1,2021-09-06T11:15:00Z,28.3400,-88.2657,29.4,28.4,11111222
Chevron,ioos:station:wmo:42385:1,2021-09-06T11:35:00Z,28.3400,-88.2657,29.4,28.4,11111222
Chevron,ioos:station:wmo:42385:1,2021-09-06T11:55:00Z,28.3400,-88.2657,29.4,28.4,11111222
Chevron,ioos:station:wmo:42385:1,2021-09-06T12:15:00Z,28.3400,-88.2657,29.4,28.4,11111222
Chevron,ioos:station:wmo:42385:1,2021-09-06T12:35:00Z,28.3400,-88.2657,29.4,27.9,11111222
Chevron,ioos:station:wmo:42385:1,2021-09-06T12:55:00Z,28.3400,-88.2657,29.4,28.4,11111222
Chevron,ioos:station:wmo:42385:1,2021-09-06T13:15:00Z,28.3400,-88.2657,29.4,28.4,11111222
Chevron,ioos:station:wmo:42385:1,2021-09-06T13:35:00Z,28.3400,-88.2657,29.4,28.6,11111222
Chevron,ioos:station:wmo:42385:1,2021-09-06T13:55:00Z,28.3400,-88.2657,29.4,28.6,11111222
Chevron,ioos:station:wmo:42385:1,2021-09-06T14:15:00Z,28.3400,-88.2657,29.4,28.4,11111222
Chevron,ioos:station:wmo:42385:1,2021-09-06T14:35:00Z,28.3400,-88.2657,29.4,28.5,11111222
Chevron,ioos:station:wmo:42385:1,2021-09-06T14:55:00Z,28.3400,-88.2657,29.4,28.6,11111222
Chevron,ioos:station:wmo:42385:1,2021-09-06T15:15:00Z,28.3400,-88.2657,29.4,28.5,11111222
Chevron,ioos:station:wmo:42385:1,2021-09-06T15:35:00Z,28.3400,-88.2657,29.4,28.6,11111222
Chevron,ioos:station:wmo:42385:1,2021-09-06T15:55:00Z,28.3400,-88.2657,29.4,28.2,11111222
Chevron,ioos:station:wmo:42385:1,2021-09-06T16:15:00Z,28.3400,-88.2657,29.4,28.5,11111222
Chevron,ioos:station:wmo:42385:1,2021-09-06T16:35:00Z,28.3400,-88.2657,29.4,28.4,11111222
Chevron,ioos:station:wmo:42385:1,2021-09-06T16:55:00Z,28.3400,-88.2657,29.4,28.4,11111222
Chevron,ioos:station:wmo:42385:1,2021-09-06T17:15:00Z,28.3400,-88.2657,29.4,28.6,11111222
Chevron,ioos:station:wmo:42385:1,2021-09-06T17:35:00Z,28.3400,-88.2657,29.4,28.5,11111222
Chevron,ioos:station:wmo:42385:1,2021-09-06T17:55:00Z,28.3400,-88.2657,29.4,28.4,11111222
Chevron,ioos:station:wmo:42385:1,2021-09-06T18:15:00Z,28.3400,-88.2657,29.4,28.6,11111222
Chevron,ioos:station:wmo:42385:1,2021-09-06T18:35:00Z,28.3400,-88.2657,29.4,28.4,11111222
Chevron,ioos:station:wmo:42385:1,2021-09-06T18:55:00Z,28.3400,-88.2657,29.4,28.5,11111222
Chevron,ioos:station:wmo:42385:1,2021-09-06T19:15:00Z,28.3400,-88.2657,29.4,28.4,11111222
Chevron,ioos:station:wmo:42385:1,2021-09-06T19:35:00Z,28.3400,-88.2657,29.4,28.4,11111222
Chevron,ioos:station:wmo:42385:1,2021-09-06T19:55:00Z,28.3400,-88.2657,29.4,28.4,11111222
Chevron,ioos:station:wmo:42385:1,2021-09-06T20:15:00Z,28.3400,-88.2657,29.4,28.4,11111222
Chevron,ioos:station:wmo:42385:1,2021-09-06T20:35:00Z,28.3400,-88.2657,29.4,28.4,11111222
Chevron,ioos:station:wmo:42385:1,2021-09-06T20:55:00Z,28.3400,-88.2657,29.4,28.6,11111222
Chevron,ioos:station:wmo:42385:1,2021-09-06T21:15:00Z,28.3400,-88.2657,29.4,28.5,11111222
Chevron,ioos:station:wmo:42385:1,2021-09-06T21:35:00Z,28.3400,-88.2657,29.4,28.6,11111222
Chevron,ioos:station:wmo:42385:1,2021-09-06T21:55:00Z,28.3400,-88.2657,29.4,28.5,11111222
Chevron,ioos:station:wmo:42385:1,2021-09-06T22:15:00Z,28.3400,-88.2657,29.4,28.6,11111222
Chevron,ioos:station:wmo:42385:1,2021-09-06T22:35:00Z,28.3400,-88.2657,29.4,28.5,11111222
Chevron,ioos:station:wmo:42385:1,2021-09-06T22:55:00Z,28.3400,-88.2657,29.4,28.5,11111222
Chevron,ioos:station:wmo:42385:1,2021-09-06T23:15:00Z,28.3400,-88.2657,29.4,28.5,11111222
Chevron,ioos:station:wmo:42385:1,2021-09-06T23:35:00Z,28.3400,-88.2657,29.4,28.6,11111222
Chevron,ioos:station:wmo:42385:1,2021-09-06T23:55:00Z,28.3400,-88.2657,29.4,28.5,11111222
Chevron,ioos:station:wmo:42385:1,2021-09-07T00:15:00Z,28.3400,-88.2657,29.4,28.4,11111222
Chevron,ioos:station:wmo:42385:1,2021-09-07T00:35:00Z,28.3400,-88.2657,29.4,28.6,11111222
Chevron,ioos:station:wmo:42385:1,2021-09-07T00:55:00Z,28.3400,-88.2657,29.4,28.6,11111222
Chevron,ioos:station:wmo:42385:1,2021-09-07T01:15:00Z,28.3400,-88.2657,29.4,28.6,11111222
Chevron,ioos:station:wmo:42385:1,2021-09-07T01:35:00Z,28.3400,-88.2657,29.4,28.5,11111222
Chevron,ioos:station:wmo:42385:1,2021-09-07T01:55:00Z,28.3400,-88.2657,29.4,28.4,11111222
Chevron,ioos:station:wmo:42385:1,2021-09-07T02:15:00Z,28.3400,-88.2657,29.4,28.4,11111222
Chevron,ioos:station:wmo:42385:1,2021-09-07T02:35:00Z,28.3400,-88.2657,29.4,28.4,11111222
Chevron,ioos:station:wmo:42385:1,2021-09-07T02:55:00Z,28.3400,-88.2657,29.4,28.5,11111222
Chevron,ioos:station:wmo:42385:1,2021-09-07T03:15:00Z,28.3400,-88.2657,29.4,28.4,11111222
Chevron,ioos:station:wmo:42385:1,2021-09-07T03:35:00Z,28.3400,-88.2657,29.4,28.4,11111222
Chevron,ioos:station:wmo:42385:1,2021-09-07T03:55:00Z,28.3400,-88.2657,29.4,28.4,11111222
Chevron,ioos:station:wmo:42385:1,2021-09-07T04:15:00Z,28.3400,-88.2657,29.4,28.7,11111222
Chevron,ioos:station:wmo:42385:1,2021-09-07T04:35:00Z,28.3400,-88.2657,29.4,28.3,11111222
Chevron,ioos:station:wmo:42385:1,2021-09-07T04:55:00Z,28.3400,-88.2657,29.4,28.3,11111222
Chevron,ioos:station:wmo:42385:1,2021-09-07T05:15:00Z,28.3400,-88.2657,29.4,28.4,11111222
Chevron,ioos:station:wmo:42385:1,2021-09-07T05:35:00Z,28.3400,-88.2657,29.4,28.4,11111222
Chevron,ioos:station:wmo:42385:1,2021-09-07T05:55:00Z,28.3400,-88.2657,29.4,28.4,11111222
Chevron,ioos:station:wmo:42385:1,2021-09-07T06:15:00Z,28.3400,-88.2657,29.4,28.4,11111222
Chevron,ioos:station:wmo:42385:1,2021-09-07T06:35:00Z,28.3400,-88.2657,29.4,27.5,11111222
Chevron,ioos:station:wmo:42385:1,2021-09-07T06:55:00Z,28.3400,-88.2657,29.4,28.0,11111222
Chevron,ioos:station:wmo:42385:1,2021-09-07T07:15:00Z,28.3400,-88.2657,29.4,27.9,11111222
Chevron,ioos:station:wmo:42385:1,2021-09-07T07:35:00Z,28.3400,-88.2657,29.4,27.8,11111222
Chevron,ioos:station:wmo:42385:1,2021-09-07T07:55:00Z,28.3400,-88.2657,29.4,27.8,11111222
Chevron,ioos:station:wmo:42385:1,2021-09-07T08:15:00Z,28.3400,-88.2657,29.4,28.1,11111222
Chevron,ioos:station:wmo:42385:1,2021-09-07T08:35:00Z,28.3400,-88.2657,29.4,28.0,11111222
Chevron,ioos:station:wmo:42385:1,2021-09-07T08:55:00Z,28.3400,-88.2657,29.4,28.3,11111222
Chevron,ioos:station:wmo:42385:1,2021-09-07T09:15:00Z,28.3400,-88.2657,29.4,28.4,11111222
Chevron,ioos:station:wmo:42385:1,2021-09-07T09:35:00Z,28.3400,-88.2657,29.4,28.4,11111222
Chevron,ioos:station:wmo:42385:1,2021-09-07T09:55:00Z,28.3400,-88.2657,29.4,28.4,11111222
Chevron,ioos:station:wmo:42385:1,2021-09-07T10:15:00Z,28.3400,-88.2657,29.4,28.5,11111222
Chevron,ioos:station:wmo:42385:1,2021-09-07T10:35:00Z,28.3400,-88.2657,29.4,28.6,11111222
Chevron,ioos:station:wmo:42385:1,2021-09-07T10:55:00Z,28.3400,-88.2657,29.4,28.8,11111222
Chevron,ioos:station:wmo:42385:1,2021-09-07T11:15:00Z,28.3400,-88.2657,29.4,28.4,11111222
Chevron,ioos:station:wmo:42385:1,2021-09-07T11:35:00Z,28.3400,-88.2657,29.4,28.4,11111222
Chevron,ioos:station:wmo:42385:1,2021-09-07T11:55:00Z,28.3400,-88.2657,29.4,28.4,11111222
Chevron,ioos:station:wmo:42385:1,2021-09-07T12:15:00Z,28.3400,-88.2657,29.4,28.6,11111222
Chevron,ioos:station:wmo:42385:1,2021-09-07T12:35:00Z,28.3400,-88.2657,29.4,28.8,11111222
Chevron,ioos:station:wmo:42385:1,2021-09-07T12:55:00Z,28.3400,-88.2657,29.4,29.1,11111222
Chevron,ioos:station:wmo:42385:1,2021-09-07T13:15:00Z,28.3400,-88.2657,29.4,29.3,11111222
Chevron,ioos:station:wmo:42385:1,2021-09-07T13:35:00Z,28.3400,-88.2657,29.4,30.1,11111222
Chevron,ioos:station:wmo:42385:1,2021-09-07T13:55:00Z,28.3400,-88.2657,29.4,30.3,11111222
Chevron,ioos:station:wmo:42385:1,2021-09-07T14:15:00Z,28.3400,-88.2657,29.4,30.4,11111222
Chevron,ioos:station:wmo:42385:1,2021-09-07T14:35:00Z,28.3400,-88.2657,29.4,30.5,11111222
Chevron,ioos:station:wmo:42385:1,2021-09-07T14:55:00Z,28.3400,-88.2657,29.4,30.5,11111222
Chevron,ioos:station:wmo:42385:1,2021-09-07T15:15:00Z,28.3400,-88.2657,29.4,30.3,11111222
Chevron,ioos:station:wmo:42385:1,2021-09-07T15:35:00Z,28.3400,-88.2657,29.4,30.4,11111222
Chevron,ioos:station:wmo:42385:1,2021-09-07T15:55:00Z,28.3400,-88.2657,29.4,30.3,11111222
Chevron,ioos:station:wmo:42385:1,2021-09-07T16:15:00Z,28.3400,-88.2657,29.4,30.4,11111222
Chevron,ioos:station:wmo:42385:1,2021-09-07T16:35:00Z,28.3400,-88.2657,29.4,30.4,11111222
Chevron,ioos:station:wmo:42385:1,2021-09-07T16:55:00Z,28.3400,-88.2657,29.4,30.6,11111222
Chevron,ioos:station:wmo:42385:1,2021-09-07T17:15:00Z,28.3400,-88.2657,29.4,30.6,11111222
Chevron,ioos:station:wmo:42385:1,2021-09-07T17:35:00Z,28.3400,-88.2657,29.4,30.6,11111222
Chevron,ioos:station:wmo:42385:1,2021-09-07T17:55:00Z,28.3400,-88.2657,29.4,30.5,11111222
Chevron,ioos:station:wmo:42385:1,2021-09-07T18:15:00Z,28.3400,-88.2657,29.4,30.5,11111222
Chevron,ioos:station:wmo:42385:1,2021-09-07T18:35:00Z,28.3400,-88.2657,29.4,30.8,11111222
Chevron,ioos:station:wmo:42385:1,2021-09-07T18:55:00Z,28.3400,-88.2657,29.4,30.6,11111222
Chevron,ioos:station:wmo:42385:1,2021-09-07T19:15:00Z,28.3400,-88.2657,29.4,30.4,11111222
Chevron,ioos:station:wmo:42385:1,2021-09-07T19:35:00Z,28.3400,-88.2657,29.4,30.4,11111222
Chevron,ioos:station:wmo:42385:1,2021-09-07T19:55:00Z,28.3400,-88.2657,29.4,30.6,11111222
Chevron,ioos:station:wmo:42385:1,2021-09-07T20:15:00Z,28.3400,-88.2657,29.4,30.4,11111222
Chevron,ioos:station:wmo:42385:1,2021-09-07T20:35:00Z,28.3400,-88.2657,29.4,30.5,11111222
Chevron,ioos:station:wmo:42385:1,2021-09-07T20:55:00Z,28.3400,-88.2657,29.4,30.5,11111222
Chevron,ioos:station:wmo:42385:1,2021-09-07T21:15:00Z,28.3400,-88.2657,29.4,30.7,11111222
Chevron,ioos:station:wmo:42385:1,2021-09-07T21:35:00Z,28.3400,-88.2657,29.4,30.6,11111222
Chevron,ioos:station:wmo:42385:1,2021-09-07T21:55:00Z,28.3400,-88.2657,29.4,30.0,11111222
Chevron,ioos:station:wmo:42385:1,2021-09-07T22:15:00Z,28.3400,-88.2657,29.4,30.5,11111222
Chevron,ioos:station:wmo:42385:1,2021-09-07T22:35:00Z,28.3400,-88.2657,29.4,30.5,11111222
Chevron,ioos:station:wmo:42385:1,2021-09-07T22:55:00Z,28.3400,-88.2657,29.4,30.7,11111222
Chevron,ioos:station:wmo:42385:1,2021-09-07T23:15:00Z,28.3400,-88.2657,29.4,30.7,11111222
Chevron,ioos:station:wmo:42385:1,2021-09-07T23:35:00Z,28.3400,-88.2657,29.4,30.7,11111222
Chevron,ioos:station:wmo:42385:1,2021-09-07T23:55:00Z,28.3400,-88.2657,29.4,30.6,11111222
Chevron,ioos:station:wmo:42385:1,2021-09-08T00:15:00Z,28.3400,-88.2657,29.4,30.7,11111222
Chevron,ioos:station:wmo:42385:1,2021-09-08T00:35:00Z,28.3400,-88.2657,29.4,30.5,11111222
Chevron,ioos:station:wmo:42385:1,2021-09-08T00:55:00Z,28.3400,-88.2657,29.4,30.7,11111222
Chevron,ioos:station:wmo:42385:1,2021-09-08T01:15:00Z,28.3400,-88.2657,29.4,30.6,11111222
Chevron,ioos:station:wmo:42385:1,2021-09-08T01:35:00Z,28.3400,-88.2657,29.4,30.6,11111222
Chevron,ioos:station:wmo:42385:1,2021-09-08T01:55:00Z,28.3400,-88.2657,29.4,30.5,11111222
Chevron,ioos:station:wmo:42385:1,2021-09-08T02:15:00Z,28.3400,-88.2657,29.4,30.7,11111222
Chevron,ioos:station:wmo:42385:1,2021-09-08T02:35:00Z,28.3400,-88.2657,29.4,30.5,11111222
Chevron,ioos:station:wmo:42385:1,2021-09-08T02:55:00Z,28.3400,-88.2657,29.4,30.5,11111222
Chevron,ioos:station:wmo:42385:1,2021-09-08T03:15:00Z,28.3400,-88.2657,29.4,30.5,11111222
Chevron,ioos:station:wmo:42385:1,2021-09-08T03:35:00Z,28.3400,-88.2657,29.4,30.5,11111222
Chevron,ioos:station:wmo:42385:1,2021-09-08T03:55:00Z,28.3400,-88.2657,29.4,30.2,11111222
Chevron,ioos:station:wmo:42385:1,2021-09-08T04:15:00Z,28.3400,-88.2657,29.4,30.5,11111222
Chevron,ioos:station:wmo:42385:1,2021-09-08T04:35:00Z,28.3400,-88.2657,29.4,30.3,11111222
Chevron,ioos:station:wmo:42385:1,2021-09-08T04:55:00Z,28.3400,-88.2657,29.4,30.4,11111222
Chevron,ioos:station:wmo:42385:1,2021-09-08T05:15:00Z,28.3400,-88.2657,29.4,30.4,11111222
Chevron,ioos:station:wmo:42385:1,2021-09-08T05:35:00Z,28.3400,-88.2657,29.4,30.5,11111222
Chevron,ioos:station:wmo:42385:1,2021-09-08T05:55:00Z,28.3400,-88.2657,29.4,30.2,11111222
Chevron,ioos:station:wmo:42385:1,2021-09-08T06:15:00Z,28.3400,-88.2657,29.4,30.2,11111222
Chevron,ioos:station:wmo:42385:1,2021-09-08T06:35:00Z,28.3400,-88.2657,29.4,30.4,11111222
Chevron,ioos:station:wmo:42385:1,2021-09-08T06:55:00Z,28.3400,-88.2657,29.4,30.4,11111222
Chevron,ioos:station:wmo:42385:1,2021-09-08T07:15:00Z,28.3400,-88.2657,29.4,30.1,11111222
Chevron,ioos:station:wmo:42385:1,2021-09-08T07:35:00Z,28.3400,-88.2657,29.4,29.9,11111222
Chevron,ioos:station:wmo:42385:1,2021-09-08T07:55:00Z,28.3400,-88.2657,29.4,29.9,11111222
Chevron,ioos:station:wmo:42385:1,2021-09-08T08:15:00Z,28.3400,-88.2657,29.4,29.9,11111222
Chevron,ioos:station:wmo:42385:1,2021-09-08T08:35:00Z,28.3400,-88.2657,29.4,29.9,11111222
Chevron,ioos:station:wmo:42385:1,2021-09-08T09:08:00Z,28.3400,-88.2657,29.4,30.0,11111222
Chevron,ioos:station:wmo:42385:1,2021-09-08T09:28:00Z,28.3400,-88.2657,29.4,30.2,11111222
Chevron,ioos:station:wmo:42385:1,2021-09-08T09:48:00Z,28.3400,-88.2657,29.4,30.3,11111222
Chevron,ioos:station:wmo:42385:1,2021-09-08T10:08:00Z,28.3400,-88.2657,29.4,30.4,11111222
Chevron,ioos:station:wmo:42385:1,2021-09-08T10:28:00Z,28.3400,-88.2657,29.4,30.5,11111222
Chevron,ioos:station:wmo:42385:1,2021-09-08T10:48:00Z,28.3400,-88.2657,29.4,30.5,11111222
Chevron,ioos:station:wmo:42385:1,2021-09-08T11:08:00Z,28.3400,-88.2657,29.4,30.6,11111222
Chevron,ioos:station:wmo:42385:1,2021-09-08T11:28:00Z,28.3400,-88.2657,29.4,30.5,11111222
Chevron,ioos:station:wmo:42385:1,2021-09-08T11:48:00Z,28.3400,-88.2657,29.4,30.6,11111222
Chevron,ioos:station:wmo:42385:1,2021-09-08T12:08:00Z,28.3400,-88.2657,29.4,30.8,11111222
Chevron,ioos:station:wmo:42385:1,2021-09-08T12:28:00Z,28.3400,-88.2657,29.4,30.9,11111222